| time (UTC) | temp C | wind direction | speed KPH | gust KPH | rain 1hr cm | rain 24hr cm | rain mn cm | humidity % | barometer mb |
| 20260505235517 | 17 | 244 | 0.0 | 8.0 | 0.00 | 0.00 | 0.00 | 71 | 1007.8 |
| 20260505234516 | 17 | 0.0 | 4.8 | 0.00 | 0.00 | 0.00 | 70 | 1007.8 | |
| 20260505233536 | 17 | 225 | 1.6 | 4.8 | 0.00 | 0.00 | 0.00 | 70 | 1007.7 |
| 20260505232516 | 16 | 294 | 0.0 | 4.8 | 0.00 | 0.00 | 0.00 | 71 | 1007.5 |
| 20260505231516 | 16 | 0.0 | 0.0 | 0.00 | 0.00 | 0.00 | 71 | 1007.4 | |
| 20260505230516 | 16 | 0.0 | 0.0 | 0.00 | 0.00 | 0.00 | 72 | 1007.2 | |
| 20260505225517 | 16 | 0.0 | 0.0 | 0.00 | 0.00 | 0.00 | 72 | 1006.9 | |
| 20260505224516 | 16 | 0.0 | 0.0 | 0.00 | 0.00 | 0.00 | 71 | 1006.7 | |
| 20260505223516 | 16 | 0.0 | 0.0 | 0.00 | 0.00 | 0.00 | 70 | 1006.4 | |
| 20260505222516 | 16 | 0.0 | 0.0 | 0.00 | 0.00 | 0.00 | 69 | 1006.3 | |
| 20260505221516 | 17 | 0.0 | 0.0 | 0.00 | 0.00 | 0.00 | 67 | 1006.3 | |
| 20260505220536 | 17 | 0.0 | 0.0 | 0.00 | 0.00 | 0.00 | 66 | 1006.3 | |
| 20260505215536 | 17 | 229 | 0.0 | 1.6 | 0.00 | 0.00 | 0.00 | 64 | 1006.3 |
| 20260505214516 | 18 | 0.0 | 0.0 | 0.00 | 0.00 | 0.00 | 63 | 1006.2 | |
| 20260505213536 | 18 | 0.0 | 4.8 | 0.00 | 0.00 | 0.00 | 62 | 1006.2 | |
| 20260505212515 | 18 | 203 | 3.2 | 11.3 | 0.00 | 0.00 | 0.00 | 62 | 1006.0 |
| 20260505211516 | 18 | 210 | 0.0 | 3.2 | 0.00 | 0.00 | 0.00 | 62 | 1006.0 |
| 20260505210515 | 17 | 182 | 1.6 | 11.3 | 0.00 | 0.00 | 0.00 | 63 | 1005.9 |
| 20260505205515 | 16 | 225 | 0.0 | 11.3 | 0.00 | 0.00 | 0.00 | 66 | 1005.9 |
| 20260505204516 | 15 | 0.0 | 0.0 | 0.00 | 0.00 | 0.00 | 68 | 1005.7 | |
| 20260505203536 | 15 | 0.0 | 0.0 | 0.00 | 0.00 | 0.00 | 70 | 1005.6 | |
| 20260505202518 | 15 | 0.0 | 0.0 | 0.00 | 0.00 | 0.00 | 70 | 1005.4 | |
| 20260505201518 | 15 | 0.0 | 0.0 | 0.00 | 0.00 | 0.00 | 69 | 1005.0 | |
| 20260505200518 | 16 | 0.0 | 0.0 | 0.00 | 0.00 | 0.00 | 68 | 1004.8 | |
| 20260505195518 | 16 | 0.0 | 0.0 | 0.00 | 0.00 | 0.00 | 66 | 1004.6 | |
| 20260505194558 | 16 | 0.0 | 0.0 | 0.00 | 0.00 | 0.00 | 66 | 1004.6 | |
| 20260505193518 | 16 | 0.0 | 0.0 | 0.00 | 0.00 | 0.00 | 65 | 1004.5 | |
| 20260505192538 | 17 | 0.0 | 0.0 | 0.00 | 0.00 | 0.00 | 63 | 1004.5 | |
| 20260505191518 | 17 | 0.0 | 0.0 | 0.00 | 0.00 | 0.00 | 62 | 1004.4 | |
| 20260505190538 | 18 | 0.0 | 0.0 | 0.00 | 0.00 | 0.00 | 61 | 1004.3 | |
| 20260505185558 | 18 | 0.0 | 0.0 | 0.00 | 0.00 | 0.00 | 59 | 1004.3 | |
| 20260505184538 | 19 | 0.0 | 0.0 | 0.00 | 0.00 | 0.00 | 57 | 1004.3 | |
| 20260505183518 | 20 | 87 | 0.0 | 1.6 | 0.00 | 0.00 | 0.00 | 55 | 1004.1 |
| 20260505182558 | 20 | 0.0 | 0.0 | 0.00 | 0.00 | 0.00 | 53 | 1004.1 | |
| 20260505181539 | 20 | 0.0 | 1.6 | 0.00 | 0.00 | 0.00 | 53 | 1004.1 | |
| 20260505180517 | 21 | 0.0 | 0.0 | 0.00 | 0.00 | 0.00 | 51 | 1004.1 | |
| 20260505175518 | 21 | 0.0 | 0.0 | 0.00 | 0.00 | 0.00 | 50 | 1004.2 | |
| 20260505174518 | 22 | 0.0 | 0.0 | 0.00 | 0.00 | 0.00 | 48 | 1004.0 | |
| 20260505173517 | 22 | 94 | 4.8 | 9.7 | 0.00 | 0.00 | 0.00 | 47 | 1004.1 |
| 20260505172518 | 22 | 139 | 1.6 | 4.8 | 0.00 | 0.00 | 0.00 | 46 | 1004.1 |
| 20260505171518 | 23 | 159 | 0.0 | 6.4 | 0.00 | 0.00 | 0.00 | 45 | 1004.0 |
| 20260505170537 | 23 | 73 | 0.0 | 3.2 | 0.00 | 0.00 | 0.00 | 44 | 1004.2 |
| 20260505165558 | 23 | 195 | 1.6 | 4.8 | 0.00 | 0.00 | 0.00 | 44 | 1004.1 |
| 20260505164517 | 24 | 208 | 4.8 | 14.5 | 0.00 | 0.00 | 0.00 | 44 | 1004.1 |
| 20260505163517 | 24 | 247 | 1.6 | 17.7 | 0.00 | 0.00 | 0.00 | 42 | 1004.2 |
| 20260505162518 | 24 | 231 | 4.8 | 19.3 | 0.00 | 0.00 | 0.00 | 42 | 1004.3 |
| 20260505161518 | 24 | 237 | 3.2 | 12.9 | 0.00 | 0.00 | 0.00 | 41 | 1004.5 |
| 20260505160517 | 24 | 0.0 | 11.3 | 0.00 | 0.00 | 0.00 | 41 | 1004.7 | |
| 20260505152517 | 26 | 180 | 3.2 | 8.0 | 0.00 | 0.00 | 0.00 | 35 | 1004.7 |
| 20260505151537 | 26 | 186 | 1.6 | 14.5 | 0.00 | 0.00 | 0.00 | 34 | 1004.6 |
| 20260505150538 | 26 | 212 | 0.0 | 4.8 | 0.00 | 0.00 | 0.00 | 34 | 1004.6 |
| 20260505140518 | 27 | 228 | 4.8 | 16.1 | 0.00 | 0.00 | 0.00 | 29 | 1004.8 |
| 20260505124518 | 28 | 57 | 6.4 | 11.3 | 0.00 | 0.00 | 0.00 | 28 | 1005.7 |
| 20260505123517 | 28 | 90 | 1.6 | 16.1 | 0.00 | 0.00 | 0.00 | 29 | 1005.8 |
| 20260505122516 | 28 | 47 | 0.0 | 8.0 | 0.00 | 0.00 | 0.00 | 28 | 1006.0 |
| 20260505121516 | 28 | 172 | 1.6 | 6.4 | 0.00 | 0.00 | 0.00 | 30 | 1006.1 |
| 20260505120516 | 27 | 126 | 6.4 | 11.3 | 0.00 | 0.00 | 0.00 | 33 | 1006.4 |
| 20260505115516 | 27 | 73 | 3.2 | 14.5 | 0.00 | 0.00 | 0.00 | 36 | 1006.4 |
| 20260505114516 | 27 | 171 | 6.4 | 20.9 | 0.00 | 0.00 | 0.00 | 37 | 1006.6 |
| 20260505113517 | 26 | 89 | 0.0 | 17.7 | 0.00 | 0.00 | 0.00 | 40 | 1006.8 |
| 20260505112537 | 26 | 54 | 6.4 | 16.1 | 0.00 | 0.00 | 0.00 | 40 | 1007.0 |
| 20260505111517 | 26 | 64 | 1.6 | 8.0 | 0.00 | 0.00 | 0.00 | 42 | 1007.1 |
| 20260505110517 | 26 | 0.0 | 14.5 | 0.00 | 0.00 | 0.00 | 43 | 1007.3 | |
| 20260505101516 | 24 | 58 | 3.2 | 12.9 | 0.00 | 0.00 | 0.00 | 45 | 1008.3 |
| 20260505095516 | 23 | 56 | 8.0 | 16.1 | 0.00 | 0.00 | 0.00 | 43 | 1008.4 |
| 20260505094516 | 24 | 66 | 4.8 | 11.3 | 0.00 | 0.00 | 0.00 | 44 | 1008.6 |
| 20260505093516 | 23 | 64 | 1.6 | 8.0 | 0.00 | 0.00 | 0.00 | 44 | 1008.6 |
| 20260505092517 | 23 | 76 | 0.0 | 11.3 | 0.00 | 0.00 | 0.00 | 45 | 1008.8 |
| 20260505091516 | 23 | 92 | 0.0 | 11.3 | 0.00 | 0.00 | 0.00 | 46 | 1008.8 |
| 20260505090516 | 23 | 0.0 | 3.2 | 0.00 | 0.00 | 0.00 | 47 | 1008.9 | |
| 20260505085516 | 24 | 36 | 1.6 | 9.7 | 0.00 | 0.00 | 0.00 | 47 | 1009.0 |
| 20260505084516 | 23 | 0.0 | 4.8 | 0.00 | 0.00 | 0.00 | 48 | 1009.0 | |
| 20260505083516 | 23 | 58 | 0.0 | 4.8 | 0.00 | 0.00 | 0.00 | 49 | 1009.0 |
| 20260505082517 | 24 | 71 | 3.2 | 9.7 | 0.00 | 0.00 | 0.00 | 46 | 1009.1 |
| 20260505081517 | 23 | 0.0 | 3.2 | 0.00 | 0.00 | 0.00 | 46 | 1009.2 | |
| 20260505080536 | 22 | 0.0 | 0.0 | 0.00 | 0.00 | 0.00 | 48 | 1009.4 | |
| 20260505075516 | 22 | 0.0 | 0.0 | 0.00 | 0.00 | 0.00 | 49 | 1009.5 | |
| 20260505074516 | 22 | 0.0 | 0.0 | 0.00 | 0.00 | 0.00 | 47 | 1009.4 | |
| 20260505073516 | 22 | 0.0 | 0.0 | 0.00 | 0.00 | 0.00 | 49 | 1009.4 | |
| 20260505072517 | 21 | 0.0 | 0.0 | 0.00 | 0.00 | 0.00 | 51 | 1009.6 | |
| 20260505071516 | 21 | 0.0 | 0.0 | 0.00 | 0.00 | 0.00 | 54 | 1009.7 | |
| 20260505070516 | 20 | 0.0 | 0.0 | 0.00 | 0.00 | 0.00 | 54 | 1009.7 | |
| 20260505065536 | 19 | 0.0 | 0.0 | 0.00 | 0.00 | 0.00 | 58 | 1009.8 | |
| 20260505064516 | 18 | 0.0 | 0.0 | 0.00 | 0.00 | 0.00 | 59 | 1009.7 | |
| 20260505063516 | 17 | 0.0 | 0.0 | 0.00 | 0.00 | 0.00 | 65 | 1009.7 | |
| 20260505062516 | 15 | 0.0 | 0.0 | 0.00 | 0.00 | 0.00 | 70 | 1009.8 | |
| 20260505061516 | 15 | 0.0 | 0.0 | 0.00 | 0.00 | 0.00 | 72 | 1009.8 | |
| 20260505060537 | 14 | 0.0 | 0.0 | 0.00 | 0.00 | 0.00 | 74 | 1009.8 | |
| 20260505055536 | 14 | 0.0 | 0.0 | 0.00 | 0.00 | 0.00 | 74 | 1009.7 | |
| 20260505054536 | 13 | 0.0 | 0.0 | 0.00 | 0.00 | 0.00 | 77 | 1009.8 | |
| 20260505053517 | 13 | 0.0 | 0.0 | 0.00 | 0.00 | 0.00 | 77 | 1009.7 | |
| 20260505052558 | 13 | 0.0 | 0.0 | 0.00 | 0.00 | 0.00 | 78 | 1009.8 | |
| 20260505051518 | 12 | 0.0 | 0.0 | 0.00 | 0.00 | 0.00 | 80 | 1009.7 | |
| 20260505050540 | 12 | 0.0 | 0.0 | 0.00 | 0.00 | 0.00 | 80 | 1009.6 | |
| 20260505041515 | 10 | 0.0 | 0.0 | 0.00 | 0.00 | 0.00 | 85 | 1009.4 | |
| 20260505040516 | 10 | 0.0 | 0.0 | 0.00 | 0.00 | 0.00 | 84 | 1009.5 | |
| 20260505035515 | 10 | 0.0 | 0.0 | 0.00 | 0.00 | 0.00 | 84 | 1009.5 | |
| 20260505034516 | 10 | 0.0 | 0.0 | 0.00 | 0.00 | 0.00 | 84 | 1009.6 | |
| 20260505033515 | 10 | 0.0 | 0.0 | 0.00 | 0.00 | 0.00 | 84 | 1009.5 | |
| 20260505032515 | 10 | 0.0 | 0.0 | 0.00 | 0.00 | 0.00 | 84 | 1009.5 | |
| 20260505031515 | 10 | 0.0 | 0.0 | 0.00 | 0.00 | 0.00 | 83 | 1009.5 | |
| 20260505030515 | 10 | 0.0 | 0.0 | 0.00 | 0.00 | 0.00 | 83 | 1009.5 | |
| 20260505025516 | 10 | 0.0 | 0.0 | 0.00 | 0.00 | 0.00 | 83 | 1009.6 | |
| 20260505024535 | 10 | 0.0 | 0.0 | 0.00 | 0.00 | 0.00 | 82 | 1009.7 | |
| 20260505023515 | 10 | 0.0 | 0.0 | 0.00 | 0.00 | 0.00 | 82 | 1009.7 | |
| 20260505022515 | 10 | 0.0 | 0.0 | 0.00 | 0.00 | 0.00 | 81 | 1009.7 | |
| 20260505021535 | 11 | 0.0 | 0.0 | 0.00 | 0.00 | 0.00 | 81 | 1009.8 | |
| 20260505020515 | 11 | 0.0 | 0.0 | 0.00 | 0.00 | 0.00 | 80 | 1009.9 | |
| 20260505015536 | 11 | 0.0 | 0.0 | 0.00 | 0.00 | 0.00 | 79 | 1010.1 | |
| 20260505014515 | 11 | 0.0 | 0.0 | 0.00 | 0.00 | 0.00 | 79 | 1010.1 | |
| 20260505013515 | 11 | 0.0 | 0.0 | 0.00 | 0.00 | 0.00 | 78 | 1010.1 | |
| 20260505012535 | 11 | 0.0 | 0.0 | 0.00 | 0.00 | 0.00 | 77 | 1010.2 | |
| 20260505011515 | 11 | 0.0 | 0.0 | 0.00 | 0.00 | 0.00 | 76 | 1010.2 | |
| 20260505010515 | 12 | 0.0 | 0.0 | 0.00 | 0.00 | 0.00 | 76 | 1010.2 | |
| 20260505005515 | 12 | 0.0 | 0.0 | 0.00 | 0.00 | 0.00 | 75 | 1010.4 | |
| 20260505004516 | 12 | 0.0 | 0.0 | 0.00 | 0.00 | 0.00 | 74 | 1010.2 | |
| 20260505003515 | 12 | 0.0 | 0.0 | 0.00 | 0.00 | 0.00 | 74 | 1010.2 | |
| 20260505002515 | 12 | 0.0 | 0.0 | 0.00 | 0.00 | 0.00 | 73 | 1010.2 | |
| 20260505001515 | 12 | 0.0 | 0.0 | 0.00 | 0.00 | 0.00 | 72 | 1010.3 | |
| 20260505000515 | 13 | 0.0 | 0.0 | 0.00 | 0.00 | 0.00 | 72 | 1010.3 |